Terug naar catalogus

CZ-2C DEB

ActiefPO
NORAD 40289·DEBRIS·🇨🇳 China

Gelanceerd Oct 27, 2014 vanaf Jiuquan Satellite Launch Center

Loading…

Volgende Passages (komende 24 uur)

TLE

VersSource: Space-Track

Epoch: Sep 14, 2026, 01:01 UTC

1 40289U 14066D   26257.04246081  .00005663  00000-0  71203-3 0  9993
2 40289  98.4835 180.3441 0062106 223.3300 136.3018 14.81159264631420

Volg CZ-2C DEB in realtime met AllMySat

Download on the App Store